Home > Time Zones > World Clock > Weather > Norway > Ski > Past weeks

Flag for Norway Weather past 2 weeks in Ski, Norway

Now
43 °F

Passing clouds.


Feels Like: 31 °F
Forecast: 24 / 31 °F
Wind: 41 mph from West

Location: Oslo / Fornebu

Current Time: Dec 19, 2014 at 4:31:19 AM

Latest Report: Dec 19, 2014 at 3:50 AM


Visibility: N/A

Pressure: 28.91 "Hg

Humidity: 66%

Dew point: 32 °F

Location of SkiLocation

Historic Weather in Ski — Graph

°F

Ski temperature yesterday

Maximum temperature yesterday: 45 °F (at 12:20 AM)
Minimum temperature yesterday: 39 °F (at 8:50 PM)
Average temperature yesterday: 43 °F

Past Weeks' High & Low Weather Summary

 TemperatureHumidityPressure
High48 °F (Dec 4, 6:50 AM)100% (Dec 6, 3:50 PM)30.04 "Hg (Dec 6, 3:50 PM)
Low32 °F (Dec 15, 9:20 PM)41% (Dec 15, 11:20 AM)28.53 "Hg (Dec 11, 2:50 AM)
Average42 °F73%29.24 "Hg
* Reported Dec 4 6:50 AM — Dec 19 2:50 AM, Ski, Weather by CustomWeather, © 2014

Note: Actual official high and low records may vary slightly from our data, if they occured in-between our weather recording intervals... More about our weather records

Advertising

Ski weather history for previous 24 hours

 ConditionsComfort  
Time TempWeatherWind HumidityBarometerVisibility
2:50 AM
Dec 19
43 °FPassing clouds.41 mph61%28.94 "HgN/A
2:20 AM43 °FPassing clouds.38 mph66%28.94 "HgN/A
1:50 AM41 °FPassing clouds.43 mph76%28.94 "HgN/A
1:20 AM43 °FPassing clouds.37 mph66%28.94 "HgN/A
12:50 AM43 °FPassing clouds.43 mph66%28.94 "HgN/A
12:20 AM43 °FPassing clouds.41 mph66%28.94 "HgN/A
11:50 PM
Dec 18
43 °FPartly cloudy.40 mph66%28.94 "HgN/A
11:20 PM41 °FPassing clouds.32 mph76%28.94 "HgN/A
10:50 PM41 °FPassing clouds.31 mph81%28.97 "HgN/A
10:20 PM39 °FSprinkles. Partly cloudy.37 mph87%28.97 "HgN/A
9:50 PM41 °FSprinkles. Partly cloudy.31 mph81%28.97 "HgN/A
9:20 PM39 °FSprinkles. Passing clouds.36 mph81%28.97 "HgN/A
8:50 PM39 °FLight rain. Partly cloudy.41 mph81%28.97 "HgN/A
8:20 PM43 °FPassing clouds.33 mph76%28.97 "HgN/A
7:50 PM43 °FPassing clouds.29 mph71%28.97 "HgN/A
7:20 PM43 °FPassing clouds.29 mph71%28.97 "HgN/A
6:50 PM43 °FPassing clouds.25 mph76%29.00 "HgN/A
6:20 PM43 °FPassing clouds.29 mph76%29.00 "HgN/A
5:50 PM41 °FLight rain. Passing clouds.21 mph81%29.00 "HgN/A
5:20 PM41 °FLight rain. Passing clouds.29 mph81%29.00 "HgN/A
4:50 PM41 °FLight rain. Passing clouds.31 mph76%29.00 "Hg3 mi
4:20 PM45 °FPartly cloudy.24 mph66%29.00 "HgN/A
3:50 PM45 °FPassing clouds.26 mph71%29.00 "HgN/A
3:20 PM43 °FPassing clouds.24 mph71%29.03 "HgN/A
2:50 PM43 °FPassing clouds.28 mph71%29.03 "HgN/A
2:20 PM43 °FPartly sunny.32 mph71%29.03 "HgN/A
1:50 PM43 °FScattered clouds.31 mph76%29.03 "HgN/A
1:20 PM43 °FBroken clouds.28 mph81%29.03 "HgN/A
12:50 PM43 °FBroken clouds.30 mph71%29.03 "HgN/A
12:20 PM43 °FPartly sunny.29 mph76%29.03 "HgN/A
11:50 AM43 °FPartly sunny.30 mph76%29.03 "HgN/A
11:20 AM43 °FPassing clouds.29 mph76%29.03 "HgN/A
10:50 AM43 °FPassing clouds.30 mph76%29.03 "HgN/A
10:20 AM41 °FBroken clouds.23 mph87%29.03 "HgN/A
9:50 AM43 °FSprinkles. Partly sunny.35 mph81%29.03 "HgN/A
9:20 AM43 °FPartly sunny.31 mph81%29.03 "HgN/A
8:50 AM41 °FSprinkles. Passing clouds.36 mph87%29.03 "HgN/A
8:20 AM43 °FSprinkles. Passing clouds.33 mph81%29.03 "HgN/A
7:50 AM41 °FLight rain. Passing clouds.33 mph87%29.03 "Hg6 mi
7:20 AM45 °FPassing clouds.36 mph81%29.00 "HgN/A
6:50 AM45 °FPartly cloudy.39 mph81%29.00 "HgN/A
6:20 AM45 °FPassing clouds.36 mph81%29.03 "HgN/A
5:50 AM43 °FSprinkles. Passing clouds.35 mph81%29.03 "HgN/A
5:20 AM45 °FPassing clouds.31 mph81%29.03 "HgN/A
4:20 AM45 °FSprinkles. Passing clouds.36 mph81%29.06 "HgN/A
Weather by CustomWeather, © 2014

See weather overviewHow to use our weather pages